EW7704 Weather Reports


Display with metric or nautical units.
time (UTC)temp
F
wind
direction
speed
MPH
gust
MPH
rain 1hr
in
rain 24hr
in
rain mn
in
humidity
%
barometer
mb
20260905030559 80 15 3.0 4.0 0.00 0.00 0.00 32 1004.1
20260905030059 80 11 2.0 4.0 0.00 0.00 0.00 32 1004.0
20260905025559 80 12 2.0 4.0 0.00 0.00 0.00 32 1004.0
20260905025058 80 11 2.0 4.0 0.00 0.00 0.00 32 1003.9
20260905024558 80 12 2.0 6.0 0.00 0.00 0.00 31 1003.9
20260905024059 80 12 3.0 6.0 0.00 0.00 0.00 31 1003.9
20260905023558 80 12 2.0 5.0 0.00 0.00 0.00 31 1003.8
20260905023100 81 12 3.0 6.0 0.00 0.00 0.00 31 1003.8
20260905022557 81 14 4.0 6.0 0.00 0.00 0.00 30 1003.7
20260905022057 81 12 3.0 6.0 0.00 0.00 0.00 30 1003.6
20260905021559 81 11 3.0 8.0 0.00 0.00 0.00 30 1003.6
20260905021059 81 11 4.0 6.0 0.00 0.00 0.00 30 1003.4
20260905020557 81 12 3.0 6.0 0.00 0.00 0.00 30 1003.4
20260905020100 81 11 4.0 6.0 0.00 0.00 0.00 30 1003.4
20260905015556 81 12 2.0 4.0 0.00 0.00 0.00 29 1003.3
20260905015056 82 11 2.0 4.0 0.00 0.00 0.00 28 1003.2
20260905014555 82 15 2.0 4.0 0.00 0.00 0.00 28 1003.2
20260905014056 83 16 2.0 5.0 0.00 0.00 0.00 28 1003.2
20260905013554 84 14 3.0 5.0 0.00 0.00 0.00 27 1003.1
20260905013055 85 15 2.0 5.0 0.00 0.00 0.00 27 1003.0
20260905012557 85 9 2.0 3.0 0.00 0.00 0.00 27 1002.9
20260905012055 86 9 0.0 3.0 0.00 0.00 0.00 26 1002.9
20260905011555 86 10 1.0 3.0 0.00 0.00 0.00 25 1002.9
20260905011058 87 10 1.0 3.0 0.00 0.00 0.00 24 1002.8
20260905010556 87 9 2.0 3.0 0.00 0.00 0.00 24 1002.8
20260905010105 87 9 0.0 4.0 0.00 0.00 0.00 24 1002.8
20260905005555 87 13 1.0 4.0 0.00 0.00 0.00 23 1002.8
20260905005053 88 11 1.0 6.0 0.00 0.00 0.00 23 1002.8
20260905004556 88 11 3.0 9.0 0.00 0.00 0.00 22 1002.8
20260905004053 89 85 4.0 10.0 0.00 0.00 0.00 22 1002.8
20260905003553 89 66 4.0 7.0 0.00 0.00 0.00 22 1002.8
20260905003053 89 75 3.0 8.0 0.00 0.00 0.00 21 1002.7
20260905002552 89 38 4.0 11.0 0.00 0.00 0.00 21 1002.7
20260905002052 90 61 5.0 11.0 0.00 0.00 0.00 21 1002.6
20260905001556 89 69 4.0 7.0 0.00 0.00 0.00 21 1002.6
20260905001056 89 78 5.0 9.0 0.00 0.00 0.00 21 1002.7
20260905000555 89 71 4.0 9.0 0.00 0.00 0.00 20 1002.7
20260904235554 89 98 3.0 7.0 0.00 0.00 0.00 20 1002.7
20260904235053 89 48 2.0 6.0 0.00 0.00 0.00 21 1002.6
20260904234551 88 55 3.0 6.0 0.00 0.00 0.00 21 1002.6
20260904234051 88 11 2.0 6.0 0.00 0.00 0.00 21 1002.6
20260904233551 88 10 2.0 6.0 0.00 0.00 0.00 20 1002.6
20260904233051 88 11 3.0 8.0 0.00 0.00 0.00 20 1002.6
20260904232551 89 40 3.0 6.0 0.00 0.00 0.00 20 1002.5
20260904232050 89 15 2.0 6.0 0.00 0.00 0.00 21 1002.5
20260904231553 89 27 3.0 7.0 0.00 0.00 0.00 21 1002.5
20260904231050 90 34 4.0 7.0 0.00 0.00 0.00 20 1002.5
20260904230550 89 45 2.0 6.0 0.00 0.00 0.00 20 1002.5
20260904230106 89 22 3.0 9.0 0.00 0.00 0.00 21 1002.5
20260904225550 89 5 2.0 6.0 0.00 0.00 0.00 20 1002.6
20260904225049 90 10 4.0 8.0 0.00 0.00 0.00 20 1002.5
20260904224550 90 40 3.0 8.0 0.00 0.00 0.00 19 1002.5
20260904224052 90 28 4.0 10.0 0.00 0.00 0.00 19 1002.6
20260904223549 91 97 5.0 10.0 0.00 0.00 0.00 18 1002.5
20260904223058 92 47 6.0 11.0 0.00 0.00 0.00 18 1002.6
20260904222648 93 55 4.0 11.0 0.00 0.00 0.00 17 1002.5
20260904222048 94 82 5.0 10.0 0.00 0.00 0.00 17 1002.5
20260904221548 94 76 3.0 10.0 0.00 0.00 0.00 16 1002.6
20260904221052 93 134 3.0 15.0 0.00 0.00 0.00 16 1002.5
20260904220549 93 59 7.0 15.0 0.00 0.00 0.00 17 1002.6
20260904220104 93 38 5.0 10.0 0.00 0.00 0.00 17 1002.6
20260904215546 93 52 5.0 13.0 0.00 0.00 0.00 17 1002.7
20260904215045 93 21 6.0 15.0 0.00 0.00 0.00 17 1002.7
20260904214545 94 36 6.0 15.0 0.00 0.00 0.00 16 1002.8
20260904214045 94 75 6.0 12.0 0.00 0.00 0.00 17 1002.8
20260904213544 94 39 4.0 10.0 0.00 0.00 0.00 17 1002.9
20260904213044 93 59 5.0 14.0 0.00 0.00 0.00 16 1002.9
20260904212545 93 98 4.0 14.0 0.00 0.00 0.00 15 1003.0
20260904212043 93 47 9.0 14.0 0.00 0.00 0.00 15 1003.0
20260904211545 93 60 6.0 11.0 0.00 0.00 0.00 16 1003.0
20260904211042 94 32 6.0 13.0 0.00 0.00 0.00 16 1003.2
20260904210542 94 72 5.0 13.0 0.00 0.00 0.00 15 1003.3
20260904210047 93 107 5.0 11.0 0.00 0.00 0.00 16 1003.3
20260904205542 93 114 1.0 12.0 0.00 0.00 0.00 16 1003.3
20260904205041 93 50 4.0 12.0 0.00 0.00 0.00 15 1003.5
20260904204541 92 130 6.0 14.0 0.00 0.00 0.00 16 1003.6
20260904204040 93 112 7.0 14.0 0.00 0.00 0.00 16 1003.6
20260904203540 93 218 3.0 11.0 0.00 0.00 0.00 17 1003.6
20260904203041 93 49 7.0 11.0 0.00 0.00 0.00 16 1003.7
20260904202540 93 90 7.0 13.0 0.00 0.00 0.00 16 1003.8
20260904202039 93 92 4.0 14.0 0.00 0.00 0.00 17 1003.8
20260904201548 92 57 8.0 14.0 0.00 0.00 0.00 16 1003.9
20260904201038 92 36 6.0 12.0 0.00 0.00 0.00 18 1004.0
20260904200538 92 68 8.0 12.0 0.00 0.00 0.00 17 1004.1
20260904200051 92 85 7.0 12.0 0.00 0.00 0.00 18 1004.0
20260904195542 92 55 3.0 11.0 0.00 0.00 0.00 17 1004.2
20260904195036 92 106 6.0 14.0 0.00 0.00 0.00 18 1004.2
20260904194544 92 61 9.0 14.0 0.00 0.00 0.00 18 1004.2
20260904194037 92 73 4.0 14.0 0.00 0.00 0.00 18 1004.2
20260904193538 92 86 8.0 14.0 0.00 0.00 0.00 18 1004.3
20260904193035 92 64 8.0 14.0 0.00 0.00 0.00 19 1004.2
20260904192535 91 63 7.0 14.0 0.00 0.00 0.00 18 1004.2
20260904192034 91 58 6.0 13.0 0.00 0.00 0.00 19 1004.3
20260904191534 91 51 7.0 13.0 0.00 0.00 0.00 18 1004.4
20260904191034 91 69 6.0 12.0 0.00 0.00 0.00 20 1004.4
20260904190532 91 69 5.0 11.0 0.00 0.00 0.00 20 1004.4
20260904190032 91 59 4.0 14.0 0.00 0.00 0.00 18 1004.5
20260904185532 90 74 8.0 13.0 0.00 0.00 0.00 19 1004.5
20260904185032 90 63 5.0 12.0 0.00 0.00 0.00 19 1004.5
20260904184600 90 86 6.0 12.0 0.00 0.00 0.00 19 1004.7
20260904184032 90 88 6.0 13.0 0.00 0.00 0.00 19 1004.7
20260904183531 90 46 8.0 14.0 0.00 0.00 0.00 20 1004.8
20260904183039 90 101 6.0 14.0 0.00 0.00 0.00 19 1004.9
20260904182530 89 46 7.0 10.0 0.00 0.00 0.00 21 1005.0
20260904182031 89 36 2.0 11.0 0.00 0.00 0.00 21 1005.0
20260904181533 90 90 3.0 10.0 0.00 0.00 0.00 21 1005.1
20260904181029 89 58 5.0 10.0 0.00 0.00 0.00 22 1005.2
20260904180529 89 78 3.0 9.0 0.00 0.00 0.00 20 1005.2
20260904180028 89 115 1.0 11.0 0.00 0.00 0.00 20 1005.2
20260904175527 88 89 5.0 11.0 0.00 0.00 0.00 21 1005.3
20260904175026 87 134 4.0 9.0 0.00 0.00 0.00 22 1005.4
20260904174557 87 101 5.0 9.0 0.00 0.00 0.00 21 1005.4
20260904174127 87 174 4.0 9.0 0.00 0.00 0.00 22 1005.4
20260904173525 87 103 4.0 11.0 0.00 0.00 0.00 23 1005.5
20260904173026 87 97 5.0 11.0 0.00 0.00 0.00 21 1005.5
20260904172527 87 130 2.0 10.0 0.00 0.00 0.00 23 1005.5
20260904172023 87 77 5.0 9.0 0.00 0.00 0.00 24 1005.5
20260904171523 86 47 4.0 10.0 0.00 0.00 0.00 25 1005.6
20260904171023 86 104 5.0 10.0 0.00 0.00 0.00 25 1005.6
20260904170522 86 64 3.0 10.0 0.00 0.00 0.00 24 1005.6
20260904170038 85 84 6.0 10.0 0.00 0.00 0.00 26 1005.6
20260904165521 84 74 4.0 10.0 0.00 0.00 0.00 26 1005.7
20260904165020 84 94 5.0 10.0 0.00 0.00 0.00 26 1005.7
20260904164519 85 125 4.0 9.0 0.00 0.00 0.00 25 1005.7
20260904164018 84 65 2.0 6.0 0.00 0.00 0.00 27 1005.6
20260904163517 84 80 2.0 9.0 0.00 0.00 0.00 26 1005.7
20260904163018 84 109 5.0 11.0 0.00 0.00 0.00 26 1005.7
20260904162517 84 87 3.0 8.0 0.00 0.00 0.00 28 1005.8
20260904162016 82 91 2.0 7.0 0.00 0.00 0.00 29 1005.7
20260904161519 82 113 4.0 7.0 0.00 0.00 0.00 28 1005.7
20260904161016 81 153 3.0 7.0 0.00 0.00 0.00 29 1005.7
20260904160514 82 136 2.0 7.0 0.00 0.00 0.00 31 1005.7
20260904160014 82 191 2.0 7.0 0.00 0.00 0.00 30 1005.7
20260904155514 81 119 2.0 7.0 0.00 0.00 0.00 30 1005.8
20260904155012 81 298 1.0 7.0 0.00 0.00 0.00 32 1005.8
20260904154509 80 110 2.0 8.0 0.00 0.00 0.00 30 1005.7
20260904154009 79 118 3.0 8.0 0.00 0.00 0.00 31 1005.7
20260904153508 79 90 3.0 7.0 0.00 0.00 0.00 31 1005.7
20260904153009 79 114 2.0 6.0 0.00 0.00 0.00 31 1005.8
20260904152505 78 98 2.0 9.0 0.00 0.00 0.00 35 1005.7
20260904152004 77 80 1.0 9.0 0.00 0.00 0.00 43 1005.7
20260904151502 76 53 1.0 3.0 0.00 0.00 0.00 47 1005.6
20260904151001 74 270 0.0 2.0 0.00 0.00 0.00 51 1005.7
20260904150600 73 257 1.0 3.0 0.00 0.00 0.00 55 1005.7
20260904150059 72 273 1.0 3.0 0.00 0.00 0.00 55 1005.8
20260904145557 72 211 1.0 3.0 0.00 0.00 0.00 57 1005.7
20260904145057 70 11 0.0 3.0 0.00 0.00 0.00 60 1005.8
20260904144555 69 26 1.0 2.0 0.00 0.00 0.00 59 1005.8
20260904144054 68 27 1.0 3.0 0.00 0.00 0.00 61 1005.9
20260904143554 68 18 1.0 3.0 0.00 0.00 0.00 61 1005.9
20260904143054 69 36 0.0 2.0 0.00 0.00 0.00 58 1005.8
20260904142553 68 30 0.0 3.0 0.00 0.00 0.00 57 1005.8
20260904142053 67 42 0.0 3.0 0.00 0.00 0.00 58 1005.8
20260904141551 68 234 0.0 3.0 0.00 0.00 0.00 56 1005.8
20260904141051 66 234 0.0 3.0 0.00 0.00 0.00 61 1005.8
20260904140551 66 345 0.0 2.0 0.00 0.00 0.00 65 1005.8
20260904140049 66 252 0.0 2.0 0.00 0.00 0.00 63 1005.7
20260904135548 66 215 0.0 2.0 0.00 0.00 0.00 58 1005.7
20260904135050 65 159 0.0 2.0 0.00 0.00 0.00 59 1005.6
20260904134548 64 88 0.0 1.0 0.00 0.00 0.00 60 1005.5
20260904134046 63 88 0.0 1.0 0.00 0.00 0.00 64 1005.5
20260904133546 62 88 0.0 1.0 0.00 0.00 0.00 64 1005.3
20260904133045 60 85 0.0 1.0 0.00 0.00 0.00 66 1005.2
20260904132545 59 86 0.0 2.0 0.00 0.00 0.00 67 1005.2
20260904132044 59 87 0.0 2.0 0.00 0.00 0.00 69 1005.2
20260904131544 58 87 0.0 1.0 0.00 0.00 0.00 70 1005.1
20260904131046 57 89 0.0 0.0 0.00 0.00 0.00 72 1005.0
20260904130543 56 86 0.0 0.0 0.00 0.00 0.00 75 1005.0
20260904130043 55 83 0.0 0.0 0.00 0.00 0.00 73 1004.9
20260904125543 55 83 0.0 0.0 0.00 0.00 0.00 74 1004.9
20260904125045 55 360 0.0 0.0 0.00 0.00 0.00 74 1004.9
20260904124542 54 360 0.0 0.0 0.00 0.00 0.00 74 1004.9
20260904124041 54 360 0.0 1.0 0.00 0.00 0.00 74 1004.8
20260904123540 54 360 0.0 2.0 0.00 0.00 0.00 72 1004.7
20260904123040 56 360 0.0 2.0 0.00 0.00 0.00 69 1004.8
20260904122540 56 360 0.0 2.0 0.00 0.00 0.00 72 1004.7
20260904122040 55 360 0.0 2.0 0.00 0.00 0.00 73 1004.7
20260904121540 55 360 0.0 2.0 0.00 0.00 0.00 74 1004.6
20260904121038 54 360 0.0 1.0 0.00 0.00 0.00 75 1004.5
20260904120541 54 360 0.0 1.0 0.00 0.00 0.00 77 1004.4
20260904120038 53 360 0.0 1.0 0.00 0.00 0.00 74 1004.4
20260904115537 55 360 0.0 1.0 0.00 0.00 0.00 73 1004.3
20260904115036 55 360 0.0 0.0 0.00 0.00 0.00 74 1004.3
20260904114534 55 360 0.0 0.0 0.00 0.00 0.00 74 1004.2
20260904114035 56 360 0.0 0.0 0.00 0.00 0.00 74 1004.1
20260904113534 56 360 0.0 1.0 0.00 0.00 0.00 72 1004.1
20260904113034 56 360 0.0 1.0 0.00 0.00 0.00 73 1004.1
20260904112533 55 360 0.0 1.0 0.00 0.00 0.00 74 1004.1
20260904112032 55 360 0.0 1.0 0.00 0.00 0.00 74 1004.1
20260904111531 55 360 0.0 1.0 0.00 0.00 0.00 72 1004.0
20260904111030 56 360 0.0 0.0 0.00 0.00 0.00 72 1003.9
20260904110530 56 360 0.0 1.0 0.00 0.00 0.00 72 1003.9
20260904110030 56 360 0.0 2.0 0.00 0.00 0.00 71 1004.0
20260904105530 56 360 0.0 2.0 0.00 0.00 0.00 72 1003.9
20260904105030 56 360 0.0 1.0 0.00 0.00 0.00 74 1003.9
20260904104528 56 360 0.0 1.0 0.00 0.00 0.00 73 1003.8
20260904104026 56 360 0.0 1.0 0.00 0.00 0.00 72 1003.8
20260904103526 57 360 0.0 0.0 0.00 0.00 0.00 71 1003.8
20260904103026 57 360 0.0 0.0 0.00 0.00 0.00 71 1003.7
20260904102526 57 360 0.0 0.0 0.00 0.00 0.00 70 1003.6
20260904102025 57 360 0.0 0.0 0.00 0.00 0.00 69 1003.7
20260904101526 57 360 0.0 1.0 0.00 0.00 0.00 69 1003.6
20260904101026 57 360 0.0 1.0 0.00 0.00 0.00 70 1003.6
20260904100525 57 360 0.0 0.0 0.00 0.00 0.00 70 1003.7
20260904100028 57 360 0.0 0.0 0.00 0.00 0.00 71 1003.8
20260904095525 56 360 0.0 0.0 0.00 0.00 0.00 71 1003.7
20260904095023 57 360 0.0 0.0 0.00 0.00 0.00 69 1003.5
20260904094521 58 360 0.0 1.0 0.00 0.00 0.00 67 1003.5
20260904094020 59 205 0.0 1.0 0.00 0.00 0.00 65 1003.4
20260904093524 60 360 0.0 1.0 0.00 0.00 0.00 64 1003.3
20260904093048 59 360 0.0 2.0 0.00 0.00 0.00 66 1003.3
20260904092519 59 360 0.0 2.0 0.00 0.00 0.00 67 1003.4
20260904092021 59 360 0.0 1.0 0.00 0.00 0.00 66 1003.3
20260904091519 59 360 0.0 1.0 0.00 0.00 0.00 65 1003.3
20260904091019 59 360 0.0 0.0 0.00 0.00 0.00 66 1003.4
20260904090520 60 360 0.0 0.0 0.00 0.00 0.00 66 1003.3
20260904090016 60 360 0.0 0.0 0.00 0.00 0.00 65 1003.3
20260904085518 60 360 0.0 0.0 0.00 0.00 0.00 64 1003.2
20260904085015 61 360 0.0 0.0 0.00 0.00 0.00 64 1003.3
20260904084514 61 360 0.0 0.0 0.00 0.00 0.00 63 1003.3
20260904084013 61 360 0.0 0.0 0.00 0.00 0.00 63 1003.2
20260904083512 61 241 0.0 1.0 0.00 0.00 0.00 62 1003.3
20260904083011 62 240 0.0 1.0 0.00 0.00 0.00 59 1003.2
20260904082512 63 240 0.0 2.0 0.00 0.00 0.00 58 1003.2
20260904082011 63 240 0.0 2.0 0.00 0.00 0.00 58 1003.2
20260904081511 62 240 0.0 2.0 0.00 0.00 0.00 60 1003.2
20260904081011 62 240 0.0 1.0 0.00 0.00 0.00 62 1003.2
20260904080510 63 240 0.0 1.0 0.00 0.00 0.00 60 1003.3
20260904080008 63 240 0.0 0.0 0.00 0.00 0.00 57 1003.2
20260904075508 64 240 0.0 1.0 0.00 0.00 0.00 57 1003.2
20260904075006 64 240 0.0 2.0 0.00 0.00 0.00 55 1003.2
20260904074504 64 240 0.0 3.0 0.00 0.00 0.00 54 1003.2
20260904074004 64 180 0.0 3.0 0.00 0.00 0.00 53 1003.2
20260904073504 65 117 1.0 2.0 0.00 0.00 0.00 52 1003.2
20260904073010 66 257 0.0 2.0 0.00 0.00 0.00 54 1003.2
20260904072502 66 259 0.0 1.0 0.00 0.00 0.00 51 1003.2
20260904072003 66 259 0.0 2.0 0.00 0.00 0.00 51 1003.0
20260904071502 66 259 0.0 4.0 0.00 0.00 0.00 49 1003.2
20260904071002 66 110 2.0 4.0 0.00 0.00 0.00 48 1003.4
20260904070502 66 261 0.0 2.0 0.00 0.00 0.00 48 1003.3
20260904070004 66 261 0.0 3.0 0.00 0.00 0.00 48 1003.5
20260904065503 67 126 1.0 3.0 0.00 0.00 0.00 49 1003.5
20260904065100 67 126 0.0 3.0 0.00 0.00 0.00 48 1003.4
20260904064558 67 263 0.0 3.0 0.00 0.00 0.00 48 1003.1
20260904064058 66 215 0.0 2.0 0.00 0.00 0.00 49 1003.2
20260904063558 66 215 0.0 4.0 0.00 0.00 0.00 49 1003.2
20260904063058 66 144 0.0 4.0 0.00 0.00 0.00 49 1003.3
20260904062557 66 126 1.0 3.0 0.00 0.00 0.00 49 1003.4
20260904062056 66 194 0.0 3.0 0.00 0.00 0.00 50 1003.4
20260904061601 65 215 0.0 3.0 0.00 0.00 0.00 51 1003.4
20260904061054 65 226 0.0 2.0 0.00 0.00 0.00 51 1003.2
20260904060554 65 202 0.0 2.0 0.00 0.00 0.00 52 1003.3
20260904060052 64 146 0.0 3.0 0.00 0.00 0.00 54 1003.2
20260904055554 64 206 0.0 3.0 0.00 0.00 0.00 55 1003.2
20260904055052 64 200 0.0 2.0 0.00 0.00 0.00 56 1003.2
20260904054557 64 200 0.0 3.0 0.00 0.00 0.00 57 1003.0
20260904054052 64 120 0.0 9.0 0.00 0.00 0.00 56 1003.0
20260904053551 63 106 4.0 8.0 0.00 0.00 0.00 57 1002.9
20260904053126 64 241 0.0 2.0 0.00 0.00 0.00 54 1002.6
20260904052551 67 246 0.0 3.0 0.00 0.00 0.00 52 1002.5
20260904052053 67 246 0.0 3.0 0.00 0.00 0.00 52 1002.4
20260904051558 67 242 0.0 3.0 0.00 0.00 0.00 52 1002.3
20260904051050 67 251 1.0 2.0 0.00 0.00 0.00 53 1002.4
20260904050550 67 244 0.0 1.0 0.00 0.00 0.00 53 1002.3
20260904050051 67 244 0.0 2.0 0.00 0.00 0.00 51 1002.3
20260904045550 68 244 0.0 2.0 0.00 0.00 0.00 49 1002.3
20260904045050 68 252 0.0 1.0 0.00 0.00 0.00 47 1002.3
20260904044552 69 252 0.0 2.0 0.00 0.00 0.00 46 1002.3
20260904044050 69 253 0.0 3.0 0.00 0.00 0.00 45 1002.2
20260904043548 69 252 0.0 3.0 0.00 0.00 0.00 45 1002.2
20260904043051 69 246 1.0 2.0 0.00 0.00 0.00 46 1002.2
20260904042550 69 243 0.0 1.0 0.00 0.00 0.00 46 1002.1
20260904042049 70 261 0.0 1.0 0.00 0.00 0.00 44 1002.2
20260904041558 71 200 0.0 3.0 0.00 0.00 0.00 43 1002.3
20260904041048 72 190 1.0 3.0 0.00 0.00 0.00 42 1002.2
20260904040548 72 360 0.0 2.0 0.00 0.00 0.00 42 1002.2
20260904040048 72 360 1.0 4.0 0.00 0.00 0.00 42 1002.2
20260904035548 72 360 1.0 4.0 0.00 0.00 0.00 41 1002.2
20260904035047 72 360 1.0 3.0 0.00 0.00 0.00 42 1002.3
20260904034547 72 360 0.0 3.0 0.00 0.00 0.00 42 1002.3
20260904034045 72 360 1.0 3.0 0.00 0.00 0.00 42 1002.3
20260904033547 72 360 1.0 3.0 0.00 0.00 0.00 42 1002.3
20260904033100 72 360 0.0 4.0 0.00 0.00 0.00 42 1002.2
20260904032545 72 360 1.0 5.0 0.00 0.00 0.00 42 1002.2
20260904032045 72 360 1.0 5.0 0.00 0.00 0.00 42 1002.1
20260904031545 72 360 1.0 4.0 0.00 0.00 0.00 43 1002.1
20260904031047 73 360 0.0 3.0 0.00 0.00 0.00 43 1002.1